Flag for Australia Weather past 2 weeks in Bairnsdale, Victoria, Australia

Now
49 °F

Cool.


Feels Like: 47 °F
Forecast: 49 / 66 °F
Wind: 6 mph from Northeast

Location: Bairnsdale Airport

Current Time: May 28, 2015 at 4:21:42 AM

Latest Report: May 28, 2015 at 3:00 AM


Visibility: N/A

Pressure: 30.08 "Hg

Humidity: 82%

Dew point: 44 °F

Location of BairnsdaleLocation

Historic Weather in Bairnsdale — Graph

°F

Bairnsdale temperature yesterday

Maximum temperature yesterday: 67 °F (at 2:00 PM)
Minimum temperature yesterday: 42 °F (at 6:00 AM)
Average temperature yesterday: 53 °F

Past Weeks' High & Low Weather Summary

 TemperatureHumidityPressure
High69 °F (May 20, 11:00 AM)100% (May 17, 12:00 AM)30.64 "Hg (May 17, 12:00 AM)
Low35 °F (May 24, 6:00 AM)48% (May 24, 2:00 PM)29.78 "Hg (May 19, 5:00 PM)
Average50 °F83%30.30 "Hg
* Reported May 13 3:00 AM — May 28 3:00 AM, Bairnsdale, Weather by CustomWeather, © 2015

Note: Actual official high and low records may vary slightly from our data, if they occured in-between our weather recording intervals... More about our weather records

Advertising

Bairnsdale weather history for previous 24 hours

 ConditionsComfort  
Time TempWeatherWind HumidityBarometerVisibility
3:00 AM
Thu, May 28
49 °FCool.6 mph82%30.08 "HgN/A
2:00 AM49 °FCool.8 mph81%30.08 "HgN/A
12:00 AM50 °FCool.7 mph85%30.10 "HgN/A
11:00 PM
Wed, May 27
49 °FCool.7 mph84%30.11 "HgN/A
9:00 PM53 °FPassing clouds.6 mph75%30.11 "HgN/A
8:00 PM57 °FCool.10 mph69%30.11 "HgN/A
6:00 PM56 °FCool.7 mph73%30.09 "HgN/A
5:00 PM59 °FCool.6 mph67%30.08 "HgN/A
3:00 PM64 °FOvercast.9 mph59%30.07 "HgN/A
2:00 PM67 °FMild.10 mph54%30.08 "HgN/A
12:00 PM64 °FPassing clouds.13 mph54%30.12 "HgN/A
11:00 AM62 °FMild.6 mph56%30.15 "HgN/A
9:00 AM51 °FScattered clouds.6 mph81%30.17 "HgN/A
8:00 AM46 °FCool.6 mph100%30.18 "HgN/A
6:00 AM42 °FPassing clouds.7 mph100%30.18 "HgN/A
5:00 AM42 °FQuite cool.5 mph100%30.18 "HgN/A
Weather by CustomWeather, © 2015

See weather overviewHow to use our weather pages